VENESAT-1

Last updated on Tue Mar 31 2020 04:58:49 GMT+0000 (Coordinated Universal Time)

1 33414U 08055A 20090.83693516 .00000080 00000-0 00000-0 0 9993 2 33414 0.0461 10.3593 0056334 222.9454 115.6209 0.99269962 41920

Satellite not in orbit

VENESAT-1